Wind_Speed
4 4 4 4 4 4 4 5 5 4 3 3 2 3 2 2 2 2 2 2 2 2 2 2 2 3 3 3 3 4 3 3 3 3 2 1 1 2 1 1 2 2 2
5 5 5 5 5 5 5 5 5 5 4 3 3 3 3 3 3 3 3 3 3 3 3 2 3 3 3 3 3 3 3 3 3 3 2 2 2 1 1 1 2 2 3
6 6 6 6 6 6 5 5 5 5 5 5 4 3 4 4 3 3 3 3 3 3 3 3 3 3 3 3 3 3 3 3 4 3 3 2 3 2 2 2 3 3 3
7 7 7 7 7 7 6 6 6 5 5 5 5 4 4 4 4 3 3 3 3 3 3 3 3 4 4 4 4 4 4 4 4 4 3 3 3 3 4 4 4 4 4
8 8 8 8 8 7 6 6 6 6 6 6 6 6 5 5 4 4 3 3 3 3 4 4 4 4 4 5 5 4 4 4 4 4 4 3 3 4 4 5 5 5 5
9 9 9 9 9 8 7 7 7 7 7 7 6 6 5 5 5 4 3 3 3 4 4 5 5 5 5 5 5 4 5 5 5 5 4 4 4 5 5 5 6 6 6
10 9 9 9 8 8 8 8 8 8 8 8 7 7 6 6 6 5 4 4 4 4 4 5 5 5 6 5 5 5 5 5 5 5 5 5 5 6 6 6 7 7 7
9 8 8 9 9 9 8 8 8 8 8 7 7 7 6 6 6 5 5 5 5 5 5 6 5 5 6 5 6 6 6 6 6 6 6 6 6 7 7 8 8 8 8
9 9 9 9 9 9 9 8 8 8 8 7 7 7 6 6 5 6 6 6 6 6 6 6 6 6 7 7 7 7 7 7 7 6 6 6 7 8 8 9 9 8 9
9 9 10 10 10 9 9 9 8 8 8 8 7 8 7 7 6 6 7 7 7 7 7 7 7 7 8 8 8 8 8 8 8 7 7 7 8 8 8 8 8 9 10
10 10 11 10 10 10 10 9 9 9 9 9 9 9 8 8 8 7 7 7 8 8 8 8 8 8 8 9 9 9 9 9 9 8 8 8 9 9 9 9 9 10 11
10 10 10 10 10 10 10 9 10 10 10 10 10 10 9 9 9 8 8 9 9 8 8 8 9 9 9 9 10 9 10 10 10 10 9 10 10 10 10 10 11 11 12
11 10 10 10 10 10 10 10 11 11 11 11 11 11 10 10 9 9 9 10 10 9 9 9 10 10 10 11 11 11 11 11 11 11 11 11 12 12 12 12 13 13 13
11 10 11 11 11 11 11 11 12 12 12 12 12 12 11 11 11 11 11 11 11 10 10 11 11 11 12 12 11 11 11 11 11 12 12 13 13 14 14 14 14 15 15
11 11 12 11 11 11 11 12 12 12 11 12 12 12 12 12 12 12 12 12 12 12 12 12 12 13 13 13 13 13 12 12 13 14 14 14 14 15 15 16 16 17 16
12 12 12 12 12 11 12 13 12 12 11 11 11 11 12 12 13 13 13 13 13 13 13 14 14 15 15 15 14 14 14 14 15 15 16 16 16 16 17 18 18 19 18
12 12 12 12 12 12 12 12 12 12 12 12 12 12 12 13 13 13 13 14 15 15 15 16 16 16 17 17 16 16 16 16 17 17 18 18 18 19 19 20 20 21 21
12 12 12 12 13 13 12 12 12 13 13 12 12 12 13 13 14 14 15 15 16 16 17 17 18 18 18 18 18 18 18 18 18 19 19 20 20 21 21 22 22 22 22
13 13 13 13 14 14 14 14 14 14 13 13 13 13 14 15 15 16 16 17 18 18 18 19 19 19 19 19 19 20 20 20 20 21 21 21 22 23 23 23 24 25 25
13 14 15 14 14 14 15 15 15 15 14 14 14 14 15 16 16 17 18 18 19 19 20 21 21 21 21 21 21 22 22 22 23 23 23 23 23 24 25 25 26 27 27
14 15 15 15 15 15 15 15 16 16 15 15 16 16 17 18 19 19 20 20 21 21 21 22 23 23 23 24 24 24 24 25 25 26 26 26 26 27 27 28 28 29 29
15 15 16 16 15 15 15 15 16 16 16 16 17 17 18 19 20 21 21 22 23 23 23 23 24 24 24 25 25 25 26 27 28 28 29 29 30 29 29 29 30 31 31
16 17 17 17 17 16 16 16 16 16 17 17 18 19 20 20 21 22 22 23 24 24 25 25 26 26 26 26 27 27 28 29 29 30 30 31 31 32 32 32 32 32 33
17 18 18 18 18 17 17 17 17 17 17 18 19 20 21 22 22 22 23 24 24 25 25 26 26 26 27 28 29 29 29 30 30 31 31 32 32 32 33 33 33 33 34
18 18 18 18 18 18 18 18 18 19 19 20 21 21 21 22 22 24 25 25 26 27 27 27 28 28 29 29 30 31 32 32 31 31 32 32 33 33 34 34 35 36 36
19 19 19 18 18 19 18 19 19 20 21 21 21 22 23 23 24 25 26 26 27 28 28 29 29 29 30 30 31 32 33 33 33 33 33 34 34 34 34 35 36 38 38
Wind_Direction
326 329 332 336 333 331 331 330 333 335 340 349 340 328 312 324 326 322 334 325 317 314 315 319 328 343 339 345 357 357 356 16 17 7 10 18 13 359 348 312 291 257 244
316 315 320 323 325 320 316 320 325 324 323 321 321 324 321 318 324 321 316 314 310 305 298 299 305 324 328 337 344 351 358 359 1 353 343 330 324 327 322 319 320 284 255
312 308 312 315 315 310 303 302 306 311 314 311 310 316 322 320 308 312 313 313 317 309 295 296 298 310 320 328 328 328 330 332 333 326 328 309 291 298 304 296 307 294 273
307 307 309 310 311 304 295 294 298 302 304 302 305 309 311 313 303 308 308 308 309 310 304 297 299 310 317 322 323 323 312 313 321 320 315 320 309 295 289 290 294 291 278
304 304 308 308 306 300 290 293 297 301 295 297 300 304 304 303 297 301 305 308 298 305 306 296 292 301 308 315 322 319 311 307 311 315 308 304 306 307 297 288 289 296 285
301 301 305 305 305 301 292 289 290 294 294 295 296 298 303 300 293 294 303 315 317 312 304 301 296 298 305 312 317 314 312 305 299 300 299 296 298 306 306 300 296 294 291
299 301 304 303 306 297 289 287 285 293 294 292 293 292 295 300 285 284 294 297 303 307 305 307 306 300 300 304 311 313 312 309 303 297 294 291 292 298 304 305 302 297 292
306 309 304 304 305 302 293 290 289 292 295 294 293 294 296 298 292 289 292 295 295 296 297 306 308 308 304 300 304 306 306 308 308 301 298 296 294 293 297 299 298 293 287
304 311 309 304 301 299 295 289 291 294 296 297 296 296 297 295 292 292 291 288 288 296 299 302 307 309 306 302 302 302 300 302 305 301 299 301 299 296 295 295 294 289 285
298 304 305 304 302 299 296 290 289 288 290 295 295 293 294 301 298 294 292 289 288 295 298 303 303 308 308 305 306 305 301 296 297 293 290 296 299 300 298 295 295 294 290
298 300 302 300 300 297 293 288 285 289 291 291 289 291 293 296 296 296 293 290 289 290 293 299 304 305 307 306 301 301 299 292 290 290 291 291 293 295 297 295 295 294 292
295 298 300 297 297 297 291 287 285 290 292 292 287 287 289 289 289 289 286 289 290 291 292 296 299 299 302 304 300 298 295 290 289 287 290 291 290 290 292 292 293 293 291
293 294 297 296 295 295 294 292 290 289 289 289 287 286 286 285 283 285 286 288 290 290 290 291 293 295 298 299 298 296 293 292 291 288 287 288 287 286 288 288 291 293 289
289 291 296 296 295 294 293 293 294 292 290 287 283 280 282 283 281 282 284 286 289 289 290 291 292 292 294 296 295 294 292 290 289 289 288 287 288 287 286 286 288 291 289
285 287 291 295 293 293 294 293 294 293 290 288 284 279 279 283 285 282 281 283 286 288 288 289 290 291 291 292 293 292 292 290 289 289 289 287 285 285 284 284 285 288 286
286 289 290 291 293 294 294 296 293 290 288 288 284 281 282 283 285 286 285 284 286 289 288 288 289 289 291 290 290 290 290 290 290 289 288 289 288 286 285 285 285 287 284
289 292 293 291 291 293 295 297 294 290 288 285 282 280 282 283 285 287 288 290 292 290 290 290 290 289 291 289 289 290 290 289 287 286 286 286 286 286 286 285 284 285 283
288 290 294 294 293 293 292 297 297 292 288 284 281 278 281 284 287 289 290 291 293 293 292 293 293 292 292 289 289 290 289 288 287 286 285 285 285 286 286 285 283 283 282
287 287 289 294 295 291 289 293 294 293 292 286 283 282 282 284 286 289 292 291 292 293 293 293 292 292 291 289 288 290 290 288 286 286 285 284 285 285 285 286 285 283 283
287 287 288 291 293 291 290 291 291 290 291 287 283 283 284 284 285 286 290 291 290 292 292 291 291 292 292 290 289 289 290 289 287 286 285 284 284 284 284 285 285 285 283
292 291 292 291 291 291 291 291 288 289 287 285 283 284 286 285 286 286 288 289 289 290 290 290 291 291 291 291 290 288 287 287 286 285 284 284 284 284 285 285 284 286 284
291 292 293 293 292 292 292 291 289 289 287 286 284 285 286 285 285 287 288 288 290 290 292 293 293 291 292 292 291 289 287 288 288 286 286 285 285 284 284 285 285 285 284
292 291 290 290 291 292 293 293 291 289 289 290 288 288 289 288 286 287 289 291 292 291 291 292 294 293 293 294 293 293 291 290 290 289 286 287 287 286 285 285 284 285 282
294 291 291 289 289 290 291 290 289 290 291 292 293 294 294 292 290 291 292 292 293 294 293 295 296 296 295 294 293 294 292 291 291 291 290 288 287 288 287 285 284 284 283
295 291 291 290 290 290 289 290 289 291 293 295 296 297 297 296 294 293 291 292 293 293 293 294 295 296 295 295 295 293 291 291 291 291 290 289 288 288 286 285 284 285 285
290 291 290 290 291 290 289 290 291 292 294 295 296 298 297 296 296 295 294 294 294 293 294 295 296 296 296 296 295 293 292 290 291 290 290 290 289 287 286 286 286 287 286
Height
5906 5905 5905 5904 5904 5904 5903 5903 5903 5903 5902 5902 5902 5902 5901 5901 5901 5901 5901 5901 5901 5901 5901 5901 5901 5900 5900 5900 5899 5899 5899 5898 5898 5898 5897 5897 5897 5897 5897 5896 5896 5896 5897
5906 5905 5905 5904 5904 5904 5903 5903 5903 5902 5902 5902 5902 5901 5901 5901 5901 5901 5901 5900 5901 5901 5900 5900 5900 5900 5900 5899 5899 5899 5898 5898 5898 5897 5897 5897 5897 5896 5896 5896 5896 5896 5896
5905 5905 5905 5904 5903 5903 5902 5902 5902 5902 5902 5902 5901 5901 5901 5901 5900 5900 5900 5900 5900 5900 5900 5900 5900 5900 5899 5899 5899 5898 5898 5898 5897 5897 5897 5896 5896 5896 5896 5895 5895 5895 5895
5904 5904 5904 5903 5903 5902 5902 5901 5901 5901 5901 5901 5900 5900 5900 5900 5899 5899 5899 5899 5899 5899 5899 5899 5899 5899 5899 5898 5898 5897 5897 5897 5896 5896 5896 5895 5895 5895 5895 5895 5894 5894 5894
5904 5903 5903 5902 5902 5901 5901 5901 5900 5900 5900 5900 5900 5899 5899 5899 5899 5899 5899 5899 5898 5898 5898 5898 5898 5898 5898 5897 5897 5896 5896 5896 5895 5895 5895 5894 5894 5894 5894 5893 5893 5893 5893
5903 5902 5902 5901 5901 5900 5900 5900 5900 5900 5899 5899 5899 5899 5898 5898 5898 5898 5898 5898 5898 5898 5898 5897 5897 5897 5897 5896 5896 5895 5895 5895 5894 5894 5894 5893 5893 5893 5893 5892 5892 5892 5891
5901 5901 5901 5900 5900 5899 5899 5898 5898 5898 5898 5898 5898 5898 5897 5897 5897 5897 5897 5897 5897 5897 5897 5896 5896 5896 5896 5895 5895 5894 5894 5893 5893 5893 5892 5892 5892 5892 5891 5891 5891 5890 5890
5900 5900 5899 5899 5899 5898 5897 5897 5897 5897 5897 5897 5897 5896 5896 5896 5895 5895 5895 5896 5896 5895 5896 5895 5895 5894 5894 5894 5893 5893 5893 5892 5891 5891 5891 5891 5890 5890 5890 5889 5889 5888 5888
5899 5899 5898 5898 5897 5897 5896 5896 5895 5895 5895 5895 5895 5895 5895 5894 5894 5895 5894 5894 5894 5894 5894 5894 5893 5893 5892 5892 5892 5891 5891 5890 5890 5889 5889 5889 5888 5888 5888 5887 5887 5886 5886
5897 5897 5897 5896 5896 5895 5895 5894 5894 5894 5894 5894 5894 5893 5893 5893 5893 5893 5893 5892 5892 5892 5892 5892 5891 5891 5890 5890 5889 5889 5889 5888 5888 5887 5887 5887 5886 5886 5885 5885 5884 5884 5883
5896 5896 5895 5894 5894 5893 5893 5893 5893 5892 5892 5892 5892 5892 5891 5891 5891 5891 5891 5891 5891 5890 5890 5889 5889 5889 5888 5888 5887 5887 5886 5886 5885 5885 5885 5884 5884 5883 5883 5882 5882 5881 5880
5894 5894 5893 5892 5892 5891 5890 5890 5890 5890 5890 5890 5889 5889 5889 5889 5889 5889 5889 5889 5889 5888 5888 5887 5887 5887 5886 5885 5885 5884 5884 5883 5883 5882 5882 5881 5881 5880 5880 5879 5879 5878 5877
5892 5892 5891 5890 5889 5889 5888 5888 5888 5887 5887 5887 5887 5887 5887 5887 5887 5887 5887 5886 5886 5886 5886 5886 5885 5884 5883 5883 5882 5882 5881 5880 5880 5879 5879 5878 5878 5877 5877 5876 5875 5874 5874
5889 5889 5889 5888 5887 5887 5886 5886 5885 5885 5884 5884 5884 5884 5884 5884 5884 5884 5884 5884 5884 5883 5883 5883 5882 5881 5881 5880 5879 5878 5878 5877 5877 5876 5875 5875 5874 5873 5873 5872 5871 5871 5870
5887 5887 5886 5886 5885 5884 5884 5883 5883 5882 5882 5881 5881 5881 5882 5881 5881 5881 5881 5881 5881 5880 5880 5879 5879 5878 5877 5876 5876 5875 5875 5874 5873 5872 5872 5871 5870 5869 5868 5868 5867 5866 5865
5884 5884 5883 5883 5882 5882 5881 5881 5880 5880 5879 5879 5879 5879 5879 5879 5878 5878 5877 5877 5877 5877 5876 5876 5875 5874 5873 5872 5872 5871 5871 5870 5869 5868 5867 5867 5866 5865 5864 5863 5862 5861 5860
5881 5881 5881 5880 5880 5879 5878 5878 5877 5877 5876 5876 5876 5876 5876 5875 5875 5875 5874 5874 5873 5873 5872 5872 5871 5870 5869 5868 5867 5867 5866 5865 5864 5864 5863 5862 5861 5860 5859 5858 5857 5856 5855
5878 5878 5878 5877 5877 5876 5876 5875 5874 5874 5873 5873 5873 5873 5872 5872 5872 5871 5871 5870 5869 5869 5868 5867 5866 5866 5865 5863 5863 5862 5861 5860 5859 5859 5857 5856 5855 5854 5853 5852 5851 5849 5848
5875 5875 5875 5874 5873 5873 5872 5872 5871 5871 5870 5869 5869 5869 5868 5868 5868 5867 5867 5866 5865 5864 5864 5863 5862 5861 5860 5859 5858 5857 5856 5855 5854 5853 5852 5850 5849 5848 5847 5845 5844 5843 5841
5872 5872 5871 5871 5870 5869 5869 5868 5868 5867 5867 5866 5866 5865 5864 5864 5864 5863 5862 5861 5861 5860 5859 5858 5857 5856 5855 5854 5853 5851 5850 5849 5848 5847 5846 5844 5843 5841 5840 5838 5837 5835 5834
5869 5868 5867 5867 5866 5865 5865 5865 5864 5863 5863 5862 5862 5861 5860 5860 5859 5859 5858 5857 5856 5855 5854 5853 5852 5851 5850 5848 5847 5845 5844 5842 5841 5840 5838 5837 5836 5834 5832 5830 5829 5827 5825
5866 5865 5864 5863 5862 5862 5861 5861 5860 5860 5859 5858 5857 5856 5856 5855 5855 5854 5853 5852 5851 5849 5848 5847 5846 5845 5844 5842 5840 5838 5837 5835 5834 5833 5830 5829 5827 5825 5824 5822 5820 5818 5816
5862 5861 5860 5859 5859 5858 5858 5857 5856 5855 5855 5854 5853 5852 5851 5850 5849 5848 5847 5846 5845 5843 5842 5841 5840 5838 5837 5835 5833 5831 5829 5827 5826 5824 5822 5820 5817 5816 5814 5812 5810 5808 5806
5858 5857 5856 5855 5855 5854 5853 5852 5852 5851 5850 5849 5848 5847 5846 5844 5843 5842 5841 5840 5838 5837 5836 5834 5833 5831 5829 5827 5825 5823 5821 5819 5817 5815 5813 5811 5808 5806 5804 5802 5800 5798 5796
5854 5853 5852 5851 5851 5850 5849 5848 5847 5847 5846 5845 5843 5842 5841 5839 5838 5836 5835 5834 5832 5830 5828 5827 5825 5823 5821 5819 5817 5815 5812 5810 5808 5806 5803 5801 5799 5796 5794 5792 5789 5787 5785
5850 5849 5848 5847 5846 5845 5845 5844 5843 5842 5841 5840 5839 5837 5835 5833 5832 5830 5828 5827 5825 5823 5821 5820 5818 5815 5813 5811 5808 5806 5804 5801 5798 5796 5793 5790 5788 5786 5784 5781 5778 5776 5773